�������l�o���
Date,Time,MP-1(��Sv/h),MP-2(��Sv/h),MP-3(��Sv/h),MP-4(��Sv/h),MP-5(��Sv/h),MP-6(��Sv/h),MP-7(��Sv/h),MP-8(��Sv/h),����,����(m/s),���J
2016/12/30,00:00,1.097,1.828,1.196,2.086,1.434,0.569,1.038,0.961,�k��,8.3,��
2016/12/30,00:10,1.097,1.830,1.195,2.083,1.434,0.567,1.037,0.962,�k��,7.7,��
2016/12/30,00:20,1.100,1.831,1.197,2.085,1.434,0.568,1.038,0.960,�k��,6.0,��
2016/12/30,00:30,1.095,1.828,1.195,2.088,1.435,0.569,1.037,0.962,�k��,8.2,��
2016/12/30,00:40,1.097,1.829,1.199,2.083,1.434,0.569,1.038,0.962,�k��,8.9,��
2016/12/30,00:50,1.095,1.829,1.197,2.088,1.435,0.568,1.037,0.962,�k��,8.5,��
2016/12/30,01:00,1.096,1.824,1.196,2.086,1.434,0.568,1.035,0.962,�k��,8.7,��
2016/12/30,01:10,1.096,1.828,1.195,2.086,1.432,0.567,1.037,0.962,�k��,6.6,��
2016/12/30,01:20,1.097,1.829,1.197,2.083,1.436,0.568,1.039,0.963,�k��,8.0,��
2016/12/30,01:30,1.095,1.830,1.195,2.083,1.436,0.569,1.037,0.961,�k��,5.9,��
2016/12/30,01:40,1.096,1.828,1.198,2.086,1.433,0.567,1.037,0.962,�k��,6.3,��
2016/12/30,01:50,1.094,1.830,1.196,2.084,1.434,0.568,1.038,0.962,�k�k��,5.2,��
2016/12/30,02:00,1.097,1.829,1.195,2.084,1.435,0.566,1.038,0.960,�k�k��,3.4,��
2016/12/30,02:10,1.095,1.828,1.196,2.084,1.435,0.568,1.037,0.962,�k��,3.8,��
2016/12/30,02:20,1.094,1.826,1.197,2.082,1.435,0.566,1.038,0.963,�k��,4.0,��
2016/12/30,02:30,1.094,1.830,1.195,2.082,1.433,0.567,1.036,0.961,�k��,6.5,��
2016/12/30,02:40,1.095,1.826,1.195,2.087,1.432,0.567,1.038,0.960,�k��,5.0,��
2016/12/30,02:50,1.095,1.825,1.195,2.082,1.436,0.566,1.038,0.961,�k��,5.9,��
2016/12/30,03:00,1.096,1.828,1.194,2.083,1.434,0.567,1.036,0.963,���k��,5.7,��
2016/12/30,03:10,1.097,1.830,1.195,2.086,1.433,0.569,1.036,0.959,���k��,4.3,��
2016/12/30,03:20,1.095,1.826,1.193,2.080,1.432,0.567,1.035,0.961,�k��,3.7,��
2016/12/30,03:30,1.093,1.829,1.194,2.085,1.434,0.566,1.036,0.962,�k��,4.4,��
2016/12/30,03:40,1.094,1.829,1.190,2.083,1.433,0.568,1.034,0.962,�k��,4.8,��
2016/12/30,03:50,1.094,1.828,1.195,2.081,1.432,0.566,1.035,0.962,�k��,4.3,��
2016/12/30,04:00,1.093,1.825,1.192,2.082,1.432,0.567,1.034,0.961,�k��,3.7,��
2016/12/30,04:10,1.093,1.825,1.190,2.083,1.433,0.566,1.036,0.960,���k��,3.3,��
2016/12/30,04:20,1.092,1.823,1.193,2.080,1.432,0.567,1.033,0.959,�k��,3.8,��
2016/12/30,04:30,1.096,1.828,1.194,2.082,1.433,0.566,1.035,0.960,�k��,5.4,��
2016/12/30,04:40,1.093,1.827,1.193,2.081,1.429,0.565,1.034,0.960,�k��,5.5,��
2016/12/30,04:50,1.095,1.826,1.193,2.080,1.433,0.565,1.034,0.959,�k��,5.1,��
2016/12/30,05:00,1.096,1.827,1.194,2.081,1.431,0.566,1.034,0.960,���k��,3.7,��
2016/12/30,05:10,1.094,1.826,1.193,2.082,1.431,0.566,1.034,0.959,���k��,3.5,��
2016/12/30,05:20,1.091,1.826,1.191,2.079,1.434,0.566,1.034,0.961,�k��,3.3,��
2016/12/30,05:30,1.092,1.826,1.192,2.079,1.431,0.566,1.033,0.959,�k��,4.2,��
2016/12/30,05:40,1.092,1.828,1.195,2.081,1.431,0.563,1.033,0.960,�k��,6.0,��
2016/12/30,05:50,1.093,1.824,1.189,2.079,1.429,0.564,1.034,0.960,�k��,6.5,��
2016/12/30,06:00,1.092,1.824,1.195,2.081,1.431,0.566,1.034,0.957,�k��,7.4,��
2016/12/30,06:10,1.092,1.826,1.191,2.083,1.430,0.566,1.035,0.959,�k��,6.4,��
2016/12/30,06:20,1.093,1.827,1.192,2.084,1.431,0.567,1.035,0.958,�k��,8.0,��
2016/12/30,06:30,1.092,1.825,1.193,2.085,1.429,0.564,1.036,0.961,�k�k��,7.0,��
2016/12/30,06:40,1.092,1.825,1.191,2.085,1.431,0.567,1.036,0.958,�k��,6.2,��
2016/12/30,06:50,1.092,1.825,1.193,2.083,1.431,0.563,1.037,0.961,�k��,4.4,��
2016/12/30,07:00,1.091,1.823,1.190,2.084,1.430,0.566,1.034,0.961,�k��,5.4,��
2016/12/30,07:10,1.092,1.825,1.192,2.082,1.432,0.563,1.035,0.960,�k��,6.2,��
2016/12/30,07:20,1.093,1.825,1.191,2.083,1.433,0.566,1.035,0.961,���k��,7.6,��
2016/12/30,07:30,1.091,1.828,1.190,2.082,1.431,0.565,1.035,0.961,�k��,7.1,��
2016/12/30,07:40,1.091,1.826,1.192,2.080,1.430,0.563,1.034,0.961,�k��,5.4,��
2016/12/30,07:50,1.091,1.824,1.189,2.084,1.428,0.564,1.037,0.960,�k��,6.9,��
2016/12/30,08:00,1.092,1.827,1.189,2.081,1.429,0.565,1.035,0.960,�k��,6.8,��
2016/12/30,08:10,1.093,1.828,1.193,2.081,1.429,0.563,1.037,0.962,�k��,8.2,��
2016/12/30,08:20,1.093,1.824,1.192,2.083,1.430,0.566,1.036,0.960,�k��,8.4,��
2016/12/30,08:30,1.095,1.827,1.192,2.085,1.431,0.565,1.037,0.961,�k��,7.3,��
2016/12/30,08:40,1.094,1.829,1.192,2.086,1.430,0.565,1.037,0.960,�k��,9.0,��
2016/12/30,08:50,1.095,1.827,1.194,2.083,1.430,0.565,1.036,0.961,�k��,10.6,��
2016/12/30,09:00,1.095,1.829,1.193,2.084,1.430,0.564,1.037,0.962,�k��,10.2,��
2016/12/30,09:10,1.096,1.828,1.193,2.084,1.431,0.564,1.037,0.960,�k��,10.5,��
2016/12/30,09:20,1.096,1.829,1.194,2.083,1.429,0.566,1.037,0.960,�k�k��,9.6,��
2016/12/30,09:30,1.097,1.831,1.197,2.083,1.433,0.565,1.037,0.961,�k��,9.8,��
2016/12/30,09:40,1.096,1.830,1.194,2.082,1.430,0.565,1.036,0.962,�k��,10.2,��
2016/12/30,09:50,1.094,1.831,1.194,2.086,1.431,0.563,1.035,0.961,�k��,9.2,��
2016/12/30,10:00,1.096,1.829,1.195,2.089,1.429,0.565,1.034,0.962,�k��,10.3,��
2016/12/30,10:10,1.097,1.831,1.195,2.083,1.432,0.566,1.033,0.961,�k��,12.7,��
2016/12/30,10:20,1.096,1.831,1.197,2.089,1.435,0.567,1.034,0.962,�k��,10.6,��
2016/12/30,10:30,1.095,1.829,1.196,2.086,1.434,0.566,1.035,0.963,�k��,9.8,��
2016/12/30,10:40,1.096,1.829,1.196,2.086,1.434,0.566,1.035,0.961,�k��,10.2,�L
2016/12/30,10:50,1.098,1.829,1.196,2.083,1.433,0.568,1.033,0.962,�k��,11.6,��
2016/12/30,11:00,1.095,1.835,1.196,2.088,1.436,0.567,1.035,0.962,�k��,10.5,��
2016/12/30,11:10,1.097,1.830,1.197,2.089,1.437,0.567,1.035,0.962,�k��,10.2,��
2016/12/30,11:20,1.098,1.831,1.199,2.085,1.437,0.568,1.036,0.962,�k��,9.2,��
2016/12/30,11:30,1.096,1.830,1.198,2.087,1.437,0.568,1.037,0.964,�k��,8.7,��
2016/12/30,11:40,1.099,1.831,1.199,2.090,1.438,0.567,1.037,0.962,�k��,9.9,��
2016/12/30,11:50,1.098,1.830,1.196,2.088,1.438,0.567,1.039,0.962,�k��,7.9,��
2016/12/30,12:00,1.098,1.829,1.197,2.087,1.436,0.568,1.036,0.964,�k��,8.4,��
2016/12/30,12:10,1.099,1.831,1.199,2.088,1.438,0.567,1.038,0.962,�k��,7.8,��
2016/12/30,12:20,1.099,1.834,1.198,2.088,1.437,0.566,1.037,0.964,�k��,10.4,��
2016/12/30,12:30,1.099,1.834,1.197,2.092,1.437,0.568,1.040,0.963,���k��,6.7,��
2016/12/30,12:40,1.098,1.831,1.199,2.088,1.438,0.568,1.038,0.962,�k��,7.3,��
2016/12/30,12:50,1.097,1.832,1.197,2.089,1.440,0.565,1.039,0.961,�k��,7.7,��
2016/12/30,13:00,1.099,1.833,1.199,2.090,1.443,0.567,1.039,0.963,�k��,4.8,��
2016/12/30,13:10,1.100,1.834,1.198,2.090,1.439,0.569,1.037,0.962,�k��,7.7,��
2016/12/30,13:20,1.100,1.831,1.198,2.089,1.440,0.567,1.039,0.963,�k�k��,5.5,��
2016/12/30,13:30,1.099,1.830,1.199,2.090,1.440,0.568,1.039,0.964,�k��,6.9,��
2016/12/30,13:40,1.100,1.831,1.197,2.091,1.436,0.567,1.037,0.962,�k�k��,7.6,��
2016/12/30,13:50,1.098,1.831,1.201,2.088,1.439,0.568,1.037,0.963,�k��,8.0,��
2016/12/30,14:00,1.100,1.831,1.198,2.091,1.437,0.566,1.038,0.961,�k��,7.9,��
2016/12/30,14:10,1.098,1.833,1.198,2.090,1.438,0.569,1.039,0.962,�k��,6.9,��
2016/12/30,14:20,1.101,1.834,1.200,2.090,1.437,0.568,1.037,0.962,�k��,7.8,��
2016/12/30,14:30,1.100,1.831,1.198,2.091,1.439,0.568,1.038,0.961,�k��,5.9,��
2016/12/30,14:40,1.098,1.832,1.199,2.090,1.439,0.566,1.038,0.962,�k�k��,4.3,��
2016/12/30,14:50,1.100,1.836,1.199,2.091,1.439,0.566,1.038,0.962,�k�k��,4.5,��
2016/12/30,15:00,1.099,1.837,1.199,2.088,1.440,0.567,1.039,0.961,�k�k��,5.7,��
2016/12/30,15:10,1.099,1.834,1.200,2.089,1.441,0.567,1.036,0.962,�k�k��,5.3,��
2016/12/30,15:20,1.098,1.833,1.201,2.088,1.440,0.567,1.037,0.962,�k�k��,4.6,��
2016/12/30,15:30,1.101,1.835,1.198,2.091,1.440,0.565,1.039,0.963,�k��,3.4,��
2016/12/30,15:40,1.097,1.834,1.199,2.087,1.441,0.567,1.036,0.961,�k��,3.9,��
2016/12/30,15:50,1.102,1.833,1.200,2.091,1.441,0.567,1.036,0.963,���k��,3.8,��
2016/12/30,16:00,1.099,1.836,1.200,2.090,1.439,0.566,1.037,0.962,�k�k��,2.0,��
2016/12/30,16:10,1.099,1.833,1.196,2.089,1.438,0.566,1.037,0.962,�k,0.6,��
2016/12/30,16:20,1.099,1.833,1.198,2.088,1.438,0.567,1.037,0.960,�k,2.2,��
2016/12/30,16:30,1.101,1.832,1.197,2.086,1.438,0.566,1.037,0.962,�k�k��,2.5,��
2016/12/30,16:40,1.098,1.831,1.197,2.088,1.441,0.566,1.037,0.962,�k,2.3,��
2016/12/30,16:50,1.098,1.831,1.198,2.083,1.439,0.566,1.036,0.960,�k,2.6,��
2016/12/30,17:00,1.097,1.828,1.194,2.086,1.438,0.566,1.035,0.961,�k,3.2,��
2016/12/30,17:10,1.098,1.830,1.196,2.085,1.437,0.566,1.037,0.962,�k,2.8,��
2016/12/30,17:20,1.097,1.834,1.194,2.087,1.437,0.566,1.037,0.963,�k��,0.8,��
2016/12/30,17:30,1.096,1.830,1.197,2.084,1.438,0.567,1.034,0.961,�k��,1.4,��
2016/12/30,17:40,1.095,1.832,1.195,2.085,1.439,0.566,1.036,0.961,�k��,2.6,��
2016/12/30,17:50,1.097,1.829,1.197,2.085,1.438,0.565,1.036,0.962,�k�k��,2.5,��
2016/12/30,18:00,1.097,1.828,1.192,2.085,1.437,0.565,1.034,0.959,�k��,1.7,��
2016/12/30,18:10,1.095,1.828,1.196,2.085,1.435,0.566,1.033,0.959,���쐼,2.2,��
2016/12/30,18:20,1.095,1.830,1.196,2.085,1.439,0.564,1.034,0.960,�쐼,2.0,��
2016/12/30,18:30,1.097,1.830,1.194,2.085,1.436,0.565,1.034,0.959,�쐼,0.9,��
2016/12/30,18:40,1.093,1.829,1.193,2.082,1.437,0.566,1.037,0.959,�쐼,1.5,��
2016/12/30,18:50,1.096,1.827,1.195,2.086,1.435,0.566,1.036,0.961,�쐼,2.5,��
2016/12/30,19:00,1.095,1.826,1.192,2.082,1.435,0.565,1.033,0.960,�쐼,2.0,��
2016/12/30,19:10,1.098,1.827,1.193,2.087,1.435,0.567,1.034,0.959,�쐼,2.5,��
2016/12/30,19:20,1.097,1.830,1.193,2.083,1.436,0.564,1.035,0.959,�쐼,3.6,��
2016/12/30,19:30,1.096,1.828,1.193,2.085,1.438,0.566,1.033,0.960,���쐼,3.9,��
2016/12/30,19:40,1.094,1.831,1.194,2.085,1.436,0.566,1.033,0.959,���쐼,4.1,��
2016/12/30,19:50,1.095,1.828,1.195,2.086,1.436,0.566,1.033,0.961,���쐼,4.7,��
2016/12/30,20:00,1.097,1.828,1.195,2.086,1.433,0.563,1.033,0.960,���쐼,5.0,��
2016/12/30,20:10,1.096,1.831,1.194,2.084,1.437,0.566,1.033,0.959,���쐼,4.8,��
2016/12/30,20:20,1.093,1.831,1.194,2.085,1.434,0.564,1.033,0.960,�쐼,3.5,��
2016/12/30,20:30,1.093,1.830,1.195,2.085,1.434,0.565,1.035,0.960,���쐼,3.8,��
2016/12/30,20:40,1.095,1.828,1.192,2.082,1.437,0.565,1.032,0.961,���쐼,4.0,��
2016/12/30,20:50,1.095,1.827,1.194,2.085,1.433,0.563,1.034,0.960,�쐼,3.9,��
2016/12/30,21:00,1.095,1.826,1.193,2.087,1.434,0.564,1.033,0.960,�쐼,3.7,��
2016/12/30,21:10,1.096,1.827,1.195,2.086,1.435,0.564,1.034,0.960,�쐼,3.1,��
2016/12/30,21:20,1.095,1.825,1.193,2.087,1.434,0.567,1.035,0.961,�쐼,3.3,��
2016/12/30,21:30,1.096,1.828,1.193,2.084,1.433,0.565,1.034,0.959,�쐼,2.9,��
2016/12/30,21:40,1.093,1.827,1.191,2.083,1.436,0.564,1.034,0.960,��쐼,3.0,��
2016/12/30,21:50,1.094,1.831,1.194,2.083,1.434,0.566,1.035,0.958,��,3.4,��
2016/12/30,22:00,1.094,1.828,1.193,2.083,1.435,0.564,1.032,0.958,��쐼,2.6,��
2016/12/30,22:10,1.094,1.828,1.193,2.084,1.434,0.566,1.034,0.959,���쐼,2.0,��
2016/12/30,22:20,1.095,1.828,1.193,2.085,1.434,0.565,1.033,0.961,���쐼,1.9,��
2016/12/30,22:30,1.096,1.825,1.194,2.081,1.433,0.565,1.036,0.959,��,2.0,��
2016/12/30,22:40,1.095,1.830,1.191,2.082,1.433,0.565,1.033,0.959,���쐼,2.2,��
2016/12/30,22:50,1.093,1.826,1.192,2.082,1.434,0.564,1.033,0.961,���쐼,2.3,��
2016/12/30,23:00,1.095,1.827,1.193,2.084,1.438,0.565,1.034,0.959,���쐼,3.2,��
2016/12/30,23:10,1.093,1.826,1.191,2.080,1.433,0.564,1.034,0.959,���쐼,3.9,��
2016/12/30,23:20,1.093,1.830,1.190,2.086,1.431,0.567,1.033,0.960,���쐼,4.0,��
2016/12/30,23:30,1.094,1.829,1.191,2.082,1.433,0.566,1.032,0.959,�쐼,4.5,��
2016/12/30,23:40,1.096,1.827,1.191,2.080,1.435,0.564,1.034,0.962,�쐼,4.2,��
2016/12/30,23:50,1.093,1.831,1.193,2.083,1.435,0.564,1.035,0.961,�쐼,3.9,��
